CLARK SAT-1 (AMBITIOUS)

Last updated on Tue Apr 16 2024 00:02:07 GMT+0000 (Coordinated Universal Time)

1 58613U 98067WE 24106.59434936 .07716247 12272-4 13183-2 0 9999 2 58613 51.6108 248.7170 0011964 305.9069 54.0842 16.32010269 18763

Satellite not in orbit